Location: Bannatyne
(13.0833°N, 59.5333°W)
Time: 00:31:39
(UTC+00:00)

Transit 2A - Pass Details

Date: 01 February 2020
Orbit: 600 x 959 km, 66.7° (Epoch: 24 February)

Event Time Altitude Azimuth Distance (km) Brightness Sun altitude
Rises 20:27:18 0° 188° (S) 3,085 9.6 20.1°
Reaches altitude 10° 20:29:49 10° 181° (S) 2,113 8.7 19.5°
Maximum altitude 20:34:18 43° 110° (ESE) 900 6.3 18.5°
Drops below altitude 10° 20:38:29 10° 38° (NE) 1,971 7.7 17.6°
Sets 20:40:45 0° 32° (NNE) 2,853 8.5 17.1°
